FW2973 Weather Reports


time (UTC)temp
C
wind
direction
speed
KPH
gust
KPH
rain 1hr
cm
rain 24hr
cm
rain mn
cm
humidity
%
barometer
mb
20260505024004 12 163 4.8 12.9 0.00 0.00 0.00 71 1013.8
20260505023503 12 267 4.8 9.7 0.00 0.00 0.00 71 1013.9
20260505023004 12 253 4.8 8.0 0.00 0.00 0.00 71 1013.8
20260505022501 12 196 3.2 6.4 0.00 0.00 0.00 70 1013.9
20260505022450 12 168 3.2 12.9 0.00 0.00 0.00 70 1013.9
20260505021446 12 235 4.8 12.9 0.00 0.00 0.00 70 1013.9
20260505020947 12 133 3.2 9.7 0.00 0.00 0.00 69 1013.9
20260505020446 13 156 3.2 8.0 0.00 0.00 0.00 69 1013.9
20260505015945 13 318 4.8 11.3 0.00 0.00 0.00 68 1013.9
20260505015446 13 184 3.2 11.3 0.00 0.00 0.00 68 1013.9
20260505014946 13 180 3.2 9.7 0.00 0.00 0.00 67 1013.9
20260505014445 13 291 4.8 14.5 0.00 0.00 0.00 66 1013.9
20260505013945 13 149 4.8 14.5 0.00 0.00 0.00 66 1013.9
20260505013445 13 146 3.2 8.0 0.00 0.00 0.00 65 1013.8
20260505012945 13 267 4.8 9.7 0.00 0.00 0.00 65 1013.7
20260505012445 13 153 4.8 9.7 0.00 0.00 0.00 64 1013.7
20260505011945 13 189 4.8 8.0 0.00 0.00 0.00 64 1013.6
20260505011445 13 154 3.2 8.0 0.00 0.00 0.00 63 1013.5
20260505010946 13 235 3.2 8.0 0.00 0.00 0.00 62 1013.4
20260505010445 13 193 4.8 9.7 0.00 0.00 0.00 62 1013.3
20260505005935 13 194 4.8 12.9 0.00 0.00 0.00 61 1013.2
20260505005435 13 264 4.8 12.9 0.00 0.00 0.00 60 1013.1
20260505004935 14 221 6.4 14.5 0.00 0.00 0.00 59 1012.9
20260505004435 14 180 6.4 16.1 0.00 0.00 0.00 58 1012.8
20260505003929 14 225 6.4 16.1 0.00 0.00 0.00 57 1012.8
20260505003430 14 187 6.4 12.9 0.00 0.00 0.00 57 1012.7
20260505002923 15 242 4.8 14.5 0.00 0.00 0.00 56 1012.5
20260505002644 15 181 4.8 14.5 0.00 0.00 0.00 55 1012.5
20260505001923 15 240 6.4 14.5 0.00 0.00 0.00 54 1012.3
20260505001646 15 120 6.4 12.9 0.00 0.00 0.00 54 1012.2
20260505000923 15 222 6.4 14.5 0.00 0.00 0.00 53 1012.0
20260505000736 15 200 8.0 16.1 0.00 0.00 0.00 52 1011.9
20260505000642 15 239 9.7 20.9 0.00 0.00 0.00 51 1011.9
20260504235424 15 252 9.7 20.9 0.00 0.00 0.00 51 1011.8
20260504234924 15 282 9.7 17.7 0.00 0.00 0.00 51 1011.7
20260504234424 16 234 8.0 19.3 0.00 0.00 0.00 50 1011.6
20260504233924 16 230 8.0 19.3 0.00 0.00 0.00 50 1011.5
20260504233425 16 271 8.0 19.3 0.00 0.00 0.00 49 1011.4
20260504232926 16 224 8.0 14.5 0.00 0.00 0.00 48 1011.4
20260504232425 16 263 6.4 14.5 0.00 0.00 0.00 48 1011.4
20260504231918 16 279 6.4 20.9 0.00 0.00 0.00 47 1011.3
20260504231413 17 230 8.0 20.9 0.00 0.00 0.00 47 1011.3
20260504230912 17 253 8.0 17.7 0.00 0.00 0.00 46 1011.2
20260504230412 17 233 8.0 16.1 0.00 0.00 0.00 46 1011.1
20260504225913 17 273 8.0 16.1 0.00 0.00 0.00 45 1011.1
20260504225640 17 249 8.0 17.7 0.00 0.00 0.00 45 1011.0
20260504224913 17 255 8.0 17.7 0.00 0.00 0.00 45 1011.0
20260504224413 17 251 8.0 16.1 0.00 0.00 0.00 45 1010.9
20260504223913 18 331 8.0 25.7 0.00 0.00 0.00 45 1010.9
20260504223413 18 329 9.7 25.7 0.00 0.00 0.00 45 1010.9
20260504223134 18 281 9.7 22.5 0.00 0.00 0.00 44 1010.8
20260504222413 18 176 9.7 22.5 0.00 0.00 0.00 43 1010.7
20260504221913 19 213 8.0 16.1 0.00 0.00 0.00 43 1010.7
20260504221413 19 301 8.0 19.3 0.00 0.00 0.00 42 1010.6
20260504220914 19 197 9.7 20.9 0.00 0.00 0.00 42 1010.6
20260504220410 19 240 9.7 20.9 0.00 0.00 0.00 41 1010.7
20260504215910 19 208 8.0 19.3 0.00 0.00 0.00 41 1010.6
20260504215634 19 212 8.0 19.3 0.00 0.00 0.00 41 1010.6
20260504214910 20 194 8.0 19.3 0.00 0.00 0.00 41 1010.6
20260504214611 20 261 9.7 20.9 0.00 0.00 0.00 40 1010.5
20260504214457 20 238 8.0 20.9 0.00 0.00 0.00 41 1010.7
20260504213408 20 168 6.4 16.1 0.00 0.00 0.00 40 1010.6
20260504212907 20 199 6.4 17.7 0.00 0.00 0.00 40 1010.5
20260504212407 20 177 8.0 19.3 0.00 0.00 0.00 40 1010.5
20260504211908 20 217 8.0 19.3 0.00 0.00 0.00 39 1010.5
20260504211409 20 254 6.4 14.5 0.00 0.00 0.00 39 1010.5
20260504211126 20 288 8.0 19.3 0.00 0.00 0.00 39 1010.5
20260504210405 20 269 8.0 19.3 0.00 0.00 0.00 38 1010.4
20260504205902 20 292 8.0 14.5 0.00 0.00 0.00 38 1010.3
20260504205853 20 207 8.0 14.5 0.00 0.00 0.00 38 1010.4
20260504204903 20 199 8.0 20.9 0.00 0.00 0.00 38 1010.3
20260504204403 20 350 8.0 20.9 0.00 0.00 0.00 39 1010.3
20260504203903 20 268 8.0 19.3 0.00 0.00 0.00 38 1010.2
20260504203627 20 171 8.0 19.3 0.00 0.00 0.00 38 1010.3
20260504202903 21 259 6.4 19.3 0.00 0.00 0.00 36 1010.3
20260504202403 21 259 6.4 14.5 0.00 0.00 0.00 34 1010.2
20260504201903 21 328 6.4 17.7 0.00 0.00 0.00 33 1010.3
20260504201403 20 321 8.0 20.9 0.00 0.00 0.00 34 1010.3
20260504200903 20 201 8.0 20.9 0.00 0.00 0.00 33 1010.2
20260504200404 20 150 8.0 16.1 0.00 0.00 0.00 34 1010.3
20260504195904 20 85 8.0 16.1 0.00 0.00 0.00 33 1010.2
20260504195400 20 250 8.0 19.3 0.00 0.00 0.00 33 1010.4
20260504194901 20 217 8.0 19.3 0.00 0.00 0.00 34 1010.5
20260504194836 20 252 8.0 20.9 0.00 0.00 0.00 33 1010.5
20260504194119 20 258 8.0 20.9 0.00 0.00 0.00 34 1010.4
20260504193357 20 168 8.0 19.3 0.00 0.00 0.00 33 1010.5
20260504193337 20 233 8.0 19.3 0.00 0.00 0.00 33 1010.5
20260504192354 20 125 8.0 19.3 0.00 0.00 0.00 32 1010.4
20260504192125 20 176 6.4 17.7 0.00 0.00 0.00 33 1010.3
20260504191355 20 242 8.0 19.3 0.00 0.00 0.00 33 1010.4
20260504190855 20 251 9.7 19.3 0.00 0.00 0.00 32 1010.4
20260504190355 20 308 8.0 17.7 0.00 0.00 0.00 32 1010.5
20260504190121 20 271 8.0 17.7 0.00 0.00 0.00 34 1010.6
20260504185352 20 184 8.0 19.3 0.00 0.00 0.00 33 1010.6
20260504185338 20 210 8.0 19.3 0.00 0.00 0.00 31 1010.8
20260504184352 20 275 8.0 14.5 0.00 0.00 0.00 32 1010.8
20260504183853 20 241 6.4 17.7 0.00 0.00 0.00 33 1010.7
20260504183351 20 271 6.4 17.7 0.00 0.00 0.00 32 1010.9
20260504182851 20 313 8.0 14.5 0.00 0.00 0.00 33 1010.8
20260504182610 20 251 8.0 14.5 0.00 0.00 0.00 33 1011.0
20260504181851 20 209 8.0 22.5 0.00 0.00 0.00 32 1011.1
20260504181351 20 346 8.0 22.5 0.00 0.00 0.00 32 1011.2
20260504180850 20 260 8.0 16.1 0.00 0.00 0.00 34 1011.1
20260504180351 20 283 9.7 16.1 0.00 0.00 0.00 32 1011.2
20260504175851 20 242 8.0 16.1 0.00 0.00 0.00 34 1011.1
20260504175351 20 321 8.0 16.1 0.00 0.00 0.00 33 1011.2
20260504174851 20 278 8.0 16.1 0.00 0.00 0.00 32 1011.4
20260504174351 20 228 9.7 20.9 0.00 0.00 0.00 33 1011.3
20260504173851 20 248 9.7 20.9 0.00 0.00 0.00 32 1011.3
20260504173351 20 250 9.7 20.9 0.00 0.00 0.00 33 1011.2
20260504172852 20 288 8.0 16.1 0.00 0.00 0.00 32 1011.1
20260504172351 20 281 8.0 19.3 0.00 0.00 0.00 33 1011.1
20260504171850 19 344 8.0 19.3 0.00 0.00 0.00 33 1011.2
20260504171351 19 259 8.0 17.7 0.00 0.00 0.00 33 1011.2
20260504170848 19 205 9.7 24.1 0.00 0.00 0.00 33 1011.3
20260504170344 20 250 8.0 24.1 0.00 0.00 0.00 33 1011.2
20260504150815 17 297 8.0 29.0 0.00 0.00 0.00 37 1012.9
20260504150316 17 252 8.0 20.9 0.00 0.00 0.00 36 1012.9
20260504141309 16 326 6.4 12.9 0.00 0.00 0.00 40 1013.5
20260504140809 16 252 8.0 17.7 0.00 0.00 0.00 40 1013.6
20260504140307 16 251 8.0 19.3 0.00 0.00 0.00 41 1013.5
20260504130756 13 261 6.4 14.5 0.00 0.00 0.00 45 1013.9
20260504130257 13 250 8.0 16.1 0.00 0.00 0.00 46 1013.9
20260504120252 11 168 6.4 17.7 0.00 0.00 0.00 50 1014.3
20260504110246 8 177 4.8 9.7 0.00 0.00 0.00 58 1014.2
20260504100435 6 285 3.2 8.0 0.00 0.00 0.00 63 1014.1
20260504081701 7 70 3.2 4.8 0.00 0.00 0.00 56 1013.7
20260504081159 7 252 3.2 4.8 0.00 0.00 0.00 55 1013.8
20260504080648 7 255 3.2 4.8 0.00 0.00 0.00 54 1013.8
20260504080146 7 250 3.2 4.8 0.00 0.00 0.00 54 1013.8
20260504070117 6 249 3.2 4.8 0.00 0.00 0.00 60 1013.6
20260504050550 5 75 1.6 3.2 0.00 0.00 0.00 59 1013.8
20260504045551 5 66 1.6 6.4 0.00 0.00 0.00 59 1013.8
20260504045034 5 232 1.6 3.2 0.00 0.00 0.00 59 1013.9
20260504044536 5 96 1.6 1.6 0.00 0.00 0.00 59 1013.9
20260504044251 5 237 1.6 3.2 0.00 0.00 0.00 60 1013.9
20260504043537 6 100 1.6 3.2 0.00 0.00 0.00 60 1013.8
20260504043035 5 112 1.6 4.8 0.00 0.00 0.00 60 1013.8
20260504042758 5 250 3.2 6.4 0.00 0.00 0.00 58 1013.8
20260504042034 5 190 3.2 6.4 0.00 0.00 0.00 59 1013.8
20260504041536 5 254 1.6 6.4 0.00 0.00 0.00 60 1013.8
20260504041035 5 161 1.6 3.2 0.00 0.00 0.00 61 1013.7
20260504041014 5 110 1.6 3.2 0.00 0.00 0.00 61 1013.7
20260504040035 5 177 3.2 6.4 0.00 0.00 0.00 60 1013.6
20260504035537 5 80 3.2 6.4 0.00 0.00 0.00 60 1013.6
20260504035021 5 171 3.2 6.4 0.00 0.00 0.00 61 1013.6
20260504034742 5 82 3.2 6.4 0.00 0.00 0.00 60 1013.5
20260504034021 5 260 3.2 4.8 0.00 0.00 0.00 61 1013.5
20260504033521 5 81 3.2 4.8 0.00 0.00 0.00 61 1013.4
20260504033021 5 251 3.2 4.8 0.00 0.00 0.00 61 1013.4
20260504032521 5 73 3.2 4.8 0.00 0.00 0.00 62 1013.4
20260504032021 5 225 1.6 4.8 0.00 0.00 0.00 61 1013.4
20260504031744 5 64 1.6 4.8 0.00 0.00 0.00 61 1013.3
20260504031022 5 180 1.6 4.8 0.00 0.00 0.00 61 1013.3
20260504030521 5 258 3.2 6.4 0.00 0.00 0.00 60 1013.3
20260504030022 5 257 3.2 6.4 0.00 0.00 0.00 60 1013.3
20260504025521 5 249 3.2 6.4 0.00 0.00 0.00 60 1013.3
20260504025007 5 250 3.2 6.4 0.00 0.00 0.00 61 1013.2
20260504024506 5 238 3.2 4.8 0.00 0.00 0.00 62 1013.2